QPF
0.00 0.00 0.00 0.00 0.00 0.00 0.00 0.00 0.00 0.00 0.00 0.00 0.00 0.00 0.00 0.00 0.00 0.00 0.00 0.00 0.00 0.00 0.00 0.00 0.00 0.00 0.00 0.00 0.00 0.00 0.00 0.00 0.00 0.00 0.00 0.00 0.00 0.00 0.00 0.00 0.00 0.00 0.00
0.00 0.00 0.00 0.00 0.00 0.00 0.00 0.00 0.00 0.00 0.00 0.00 0.00 0.00 0.00 0.00 0.00 0.00 0.00 0.00 0.00 0.00 0.00 0.00 0.00 0.00 0.00 0.00 0.00 0.00 0.00 0.00 0.00 0.00 0.00 0.00 0.00 0.00 0.00 0.00 0.00 0.00 0.00
0.00 0.00 0.00 0.00 0.00 0.00 0.00 0.00 0.00 0.00 0.00 0.00 0.00 0.00 0.00 0.00 0.00 0.00 0.00 0.00 0.00 0.00 0.00 0.00 0.00 0.00 0.00 0.00 0.00 0.00 0.00 0.00 0.00 0.00 0.00 0.00 0.00 0.00 0.00 0.00 0.00 0.00 0.00
0.00 0.00 0.00 0.00 0.00 0.00 0.00 0.00 0.00 0.00 0.00 0.00 0.00 0.00 0.00 0.00 0.00 0.00 0.00 0.00 0.00 0.00 0.00 0.00 0.00 0.00 0.00 0.00 0.00 0.00 0.00 0.00 0.00 0.00 0.00 0.00 0.01 0.01 0.01 0.01 0.01 0.01 0.01
0.00 0.00 0.00 0.00 0.00 0.00 0.00 0.00 0.00 0.00 0.00 0.00 0.00 0.00 0.00 0.00 0.00 0.00 0.00 0.00 0.00 0.00 0.00 0.00 0.00 0.00 0.00 0.00 0.00 0.00 0.00 0.00 0.00 0.00 0.00 0.00 0.01 0.01 0.01 0.01 0.01 0.01 0.01
0.00 0.00 0.00 0.00 0.00 0.00 0.00 0.00 0.00 0.00 0.00 0.00 0.00 0.00 0.00 0.00 0.00 0.00 0.00 0.00 0.00 0.00 0.00 0.00 0.00 0.00 0.00 0.00 0.00 0.00 0.00 0.00 0.00 0.00 0.00 0.00 0.01 0.01 0.01 0.01 0.01 0.01 0.01
0.00 0.00 0.00 0.00 0.00 0.00 0.00 0.00 0.00 0.00 0.00 0.00 0.00 0.00 0.00 0.00 0.00 0.00 0.00 0.00 0.00 0.00 0.00 0.00 0.00 0.00 0.00 0.00 0.00 0.00 0.00 0.00 0.00 0.00 0.00 0.01 0.01 0.01 0.02 0.02 0.02 0.02 0.02
0.00 0.00 0.00 0.00 0.00 0.00 0.00 0.00 0.00 0.00 0.00 0.00 0.00 0.00 0.00 0.00 0.00 0.00 0.00 0.00 0.00 0.00 0.00 0.00 0.00 0.00 0.00 0.00 0.00 0.00 0.00 0.00 0.00 0.00 0.00 0.00 0.01 0.02 0.02 0.02 0.03 0.03 0.03
0.00 0.00 0.00 0.00 0.00 0.00 0.00 0.00 0.00 0.00 0.00 0.00 0.00 0.00 0.00 0.00 0.00 0.00 0.00 0.00 0.00 0.00 0.00 0.00 0.00 0.00 0.00 0.00 0.00 0.00 0.00 0.00 0.00 0.00 0.00 0.00 0.01 0.02 0.03 0.03 0.04 0.04 0.04
0.00 0.00 0.00 0.00 0.00 0.00 0.00 0.00 0.00 0.00 0.00 0.00 0.00 0.00 0.00 0.00 0.00 0.00 0.00 0.00 0.00 0.00 0.00 0.00 0.00 0.00 0.00 0.00 0.00 0.00 0.00 0.00 0.00 0.00 0.00 0.00 0.00 0.01 0.03 0.04 0.05 0.06 0.06
0.00 0.00 0.00 0.00 0.00 0.00 0.00 0.00 0.00 0.00 0.00 0.00 0.00 0.00 0.00 0.00 0.00 0.00 0.00 0.00 0.00 0.00 0.00 0.00 0.00 0.00 0.00 0.00 0.00 0.00 0.00 0.00 0.00 0.00 0.00 0.00 0.00 0.01 0.02 0.04 0.06 0.07 0.08
0.00 0.00 0.00 0.00 0.00 0.00 0.00 0.00 0.00 0.00 0.00 0.00 0.00 0.00 0.00 0.00 0.00 0.00 0.00 0.00 0.00 0.00 0.00 0.00 0.00 0.00 0.00 0.00 0.00 0.00 0.00 0.00 0.00 0.00 0.00 0.00 0.00 0.00 0.01 0.03 0.05 0.07 0.09
0.00 0.00 0.00 0.00 0.00 0.00 0.00 0.00 0.00 0.00 0.00 0.00 0.00 0.00 0.00 0.00 0.00 0.00 0.00 0.00 0.00 0.00 0.00 0.00 0.00 0.00 0.00 0.00 0.00 0.00 0.00 0.00 0.00 0.00 0.00 0.00 0.00 0.00 0.00 0.01 0.02 0.05 0.08
0.00 0.00 0.00 0.00 0.00 0.00 0.00 0.00 0.00 0.00 0.00 0.00 0.00 0.00 0.00 0.00 0.00 0.00 0.00 0.00 0.00 0.00 0.00 0.00 0.00 0.00 0.00 0.00 0.00 0.00 0.00 0.00 0.00 0.00 0.00 0.00 0.00 0.00 0.00 0.01 0.01 0.02 0.04
0.00 0.00 0.00 0.00 0.00 0.00 0.00 0.00 0.00 0.00 0.00 0.00 0.00 0.00 0.00 0.00 0.00 0.00 0.00 0.00 0.00 0.00 0.00 0.00 0.00 0.00 0.00 0.00 0.00 0.00 0.00 0.00 0.00 0.00 0.00 0.00 0.00 0.00 0.01 0.01 0.01 0.01 0.01
0.00 0.00 0.00 0.00 0.00 0.00 0.00 0.00 0.00 0.00 0.00 0.00 0.00 0.00 0.00 0.00 0.00 0.00 0.00 0.00 0.00 0.01 0.00 0.00 0.00 0.00 0.00 0.00 0.00 0.00 0.00 0.00 0.00 0.00 0.00 0.00 0.00 0.01 0.01 0.01 0.01 0.01 0.02
0.00 0.00 0.00 0.00 0.00 0.00 0.00 0.00 0.00 0.00 0.00 0.00 0.00 0.00 0.00 0.00 0.00 0.00 0.00 0.00 0.00 0.00 0.01 0.00 0.00 0.00 0.00 0.00 0.00 0.00 0.00 0.00 0.00 0.00 0.00 0.00 0.01 0.01 0.01 0.02 0.02 0.02 0.02
0.00 0.00 0.00 0.00 0.00 0.00 0.00 0.00 0.00 0.00 0.00 0.00 0.00 0.00 0.00 0.00 0.00 0.00 0.00 0.00 0.00 0.00 0.01 0.01 0.00 0.00 0.00 0.00 0.00 0.00 0.00 0.00 0.00 0.00 0.00 0.00 0.00 0.01 0.01 0.02 0.02 0.02 0.03
0.00 0.00 0.00 0.00 0.00 0.00 0.00 0.00 0.00 0.00 0.00 0.00 0.00 0.00 0.00 0.00 0.00 0.00 0.00 0.00 0.00 0.01 0.01 0.01 0.01 0.01 0.00 0.00 0.00 0.00 0.00 0.00 0.00 0.00 0.00 0.00 0.00 0.01 0.01 0.02 0.02 0.03 0.03
0.00 0.00 0.00 0.00 0.00 0.00 0.00 0.00 0.00 0.00 0.00 0.00 0.00 0.00 0.00 0.00 0.00 0.00 0.01 0.01 0.01 0.01 0.01 0.02 0.02 0.01 0.01 0.01 0.01 0.01 0.00 0.00 0.00 0.00 0.00 0.00 0.00 0.00 0.01 0.01 0.02 0.03 0.04
0.00 0.00 0.00 0.00 0.00 0.00 0.00 0.00 0.00 0.00 0.00 0.00 0.00 0.00 0.00 0.00 0.01 0.02 0.02 0.02 0.03 0.03 0.04 0.05 0.05 0.05 0.03 0.02 0.02 0.02 0.02 0.01 0.01 0.00 0.00 0.00 0.00 0.00 0.00 0.00 0.01 0.02 0.04
0.00 0.00 0.00 0.00 0.00 0.00 0.00 0.00 0.00 0.00 0.00 0.00 0.00 0.00 0.00 0.01 0.01 0.02 0.03 0.04 0.05 0.06 0.07 0.09 0.10 0.10 0.07 0.04 0.03 0.04 0.04 0.04 0.03 0.01 0.00 0.00 0.00 0.00 0.00 0.00 0.00 0.01 0.03
0.00 0.00 0.00 0.00 0.00 0.00 0.00 0.00 0.00 0.00 0.00 0.00 0.00 0.00 0.00 0.00 0.01 0.01 0.01 0.02 0.02 0.03 0.04 0.06 0.08 0.06 0.04 0.03 0.05 0.07 0.06 0.06 0.04 0.02 0.03 0.02 0.00 0.00 0.00 0.00 0.00 0.01 0.02
0.00 0.00 0.00 0.00 0.00 0.00 0.00 0.00 0.00 0.00 0.00 0.00 0.00 0.00 0.00 0.00 0.01 0.01 0.01 0.01 0.01 0.01 0.02 0.02 0.03 0.02 0.02 0.02 0.04 0.06 0.07 0.07 0.05 0.02 0.03 0.05 0.01 0.00 0.00 0.00 0.00 0.01 0.02
0.00 0.00 0.00 0.00 0.00 0.00 0.00 0.00 0.00 0.00 0.00 0.00 0.00 0.00 0.01 0.01 0.01 0.03 0.03 0.03 0.03 0.02 0.02 0.03 0.05 0.05 0.05 0.07 0.10 0.16 0.19 0.19 0.13 0.03 0.01 0.04 0.02 0.01 0.01 0.00 0.00 0.01 0.02
0.00 0.00 0.00 0.00 0.00 0.00 0.00 0.00 0.00 0.00 0.00 0.01 0.01 0.01 0.01 0.02 0.03 0.05 0.05 0.05 0.04 0.02 0.02 0.02 0.02 0.03 0.03 0.03 0.05 0.08 0.12 0.16 0.14 0.07 0.01 0.02 0.02 0.04 0.04 0.01 0.00 0.00 0.00
MSLP
1022.28 1022.42 1022.49 1022.50 1022.49 1022.48 1022.49 1022.53 1022.59 1022.67 1022.73 1022.76 1022.75 1022.70 1022.63 1022.54 1022.45 1022.39 1022.35 1022.33 1022.31 1022.27 1022.20 1022.08 1021.92 1021.73 1021.53 1021.34 1021.18 1021.06 1020.99 1020.97 1021.00 1021.05 1021.13 1021.22 1021.32 1021.42 1021.52 1021.61 1021.68 1021.73 1021.74
1022.02 1022.14 1022.19 1022.20 1022.17 1022.15 1022.15 1022.17 1022.22 1022.27 1022.32 1022.34 1022.32 1022.25 1022.15 1022.02 1021.90 1021.78 1021.70 1021.64 1021.59 1021.55 1021.49 1021.40 1021.27 1021.11 1020.93 1020.75 1020.57 1020.42 1020.32 1020.26 1020.25 1020.29 1020.36 1020.47 1020.59 1020.73 1020.87 1020.99 1021.10 1021.17 1021.22
1021.73 1021.84 1021.89 1021.91 1021.90 1021.89 1021.90 1021.93 1021.97 1022.03 1022.07 1022.08 1022.03 1021.93 1021.77 1021.59 1021.39 1021.20 1021.04 1020.91 1020.82 1020.76 1020.70 1020.64 1020.56 1020.45 1020.30 1020.14 1019.96 1019.80 1019.66 1019.55 1019.50 1019.49 1019.54 1019.63 1019.76 1019.91 1020.07 1020.22 1020.35 1020.45 1020.53
1021.44 1021.55 1021.63 1021.67 1021.70 1021.72 1021.76 1021.81 1021.87 1021.93 1021.97 1021.96 1021.88 1021.73 1021.52 1021.25 1020.96 1020.67 1020.41 1020.20 1020.05 1019.96 1019.90 1019.86 1019.82 1019.76 1019.66 1019.53 1019.37 1019.19 1019.01 1018.86 1018.75 1018.69 1018.68 1018.74 1018.84 1018.97 1019.12 1019.28 1019.42 1019.55 1019.66
1021.18 1021.31 1021.41 1021.49 1021.57 1021.64 1021.71 1021.79 1021.88 1021.94 1021.97 1021.94 1021.83 1021.64 1021.36 1021.01 1020.62 1020.23 1019.86 1019.56 1019.34 1019.19 1019.12 1019.09 1019.08 1019.07 1019.01 1018.92 1018.77 1018.59 1018.38 1018.18 1018.00 1017.87 1017.80 1017.79 1017.84 1017.93 1018.05 1018.19 1018.34 1018.48 1018.61
1020.99 1021.12 1021.25 1021.37 1021.49 1021.60 1021.71 1021.81 1021.91 1021.98 1022.00 1021.96 1021.82 1021.58 1021.25 1020.83 1020.36 1019.87 1019.41 1019.02 1018.72 1018.51 1018.41 1018.37 1018.38 1018.39 1018.37 1018.30 1018.16 1017.97 1017.74 1017.49 1017.25 1017.05 1016.91 1016.83 1016.81 1016.84 1016.92 1017.03 1017.15 1017.28 1017.43
1020.87 1021.00 1021.14 1021.29 1021.43 1021.56 1021.69 1021.80 1021.90 1021.97 1021.98 1021.93 1021.78 1021.52 1021.15 1020.69 1020.16 1019.60 1019.07 1018.59 1018.21 1017.95 1017.79 1017.73 1017.72 1017.73 1017.72 1017.66 1017.53 1017.33 1017.07 1016.79 1016.50 1016.24 1016.03 1015.88 1015.80 1015.77 1015.79 1015.85 1015.93 1016.05 1016.18
1020.81 1020.93 1021.07 1021.21 1021.35 1021.48 1021.60 1021.70 1021.79 1021.85 1021.86 1021.80 1021.65 1021.40 1021.03 1020.56 1020.00 1019.41 1018.82 1018.28 1017.83 1017.49 1017.27 1017.15 1017.10 1017.09 1017.06 1016.99 1016.85 1016.64 1016.37 1016.06 1015.75 1015.45 1015.20 1015.00 1014.86 1014.77 1014.74 1014.74 1014.77 1014.84 1014.95
1020.81 1020.90 1021.01 1021.12 1021.23 1021.33 1021.42 1021.50 1021.56 1021.60 1021.60 1021.55 1021.42 1021.19 1020.85 1020.40 1019.86 1019.26 1018.64 1018.05 1017.54 1017.12 1016.82 1016.62 1016.51 1016.43 1016.36 1016.26 1016.11 1015.90 1015.63 1015.32 1015.00 1014.70 1014.43 1014.21 1014.03 1013.91 1013.82 1013.77 1013.74 1013.76 1013.81
1020.84 1020.88 1020.95 1021.01 1021.07 1021.12 1021.16 1021.19 1021.22 1021.23 1021.23 1021.18 1021.08 1020.89 1020.60 1020.20 1019.69 1019.11 1018.48 1017.86 1017.29 1016.80 1016.41 1016.11 1015.91 1015.76 1015.63 1015.49 1015.32 1015.11 1014.85 1014.57 1014.28 1014.00 1013.74 1013.53 1013.34 1013.19 1013.06 1012.96 1012.87 1012.82 1012.80
1020.87 1020.87 1020.88 1020.89 1020.89 1020.87 1020.85 1020.82 1020.80 1020.78 1020.77 1020.74 1020.67 1020.52 1020.29 1019.94 1019.48 1018.93 1018.30 1017.66 1017.03 1016.47 1015.98 1015.59 1015.29 1015.05 1014.86 1014.68 1014.50 1014.29 1014.07 1013.83 1013.58 1013.35 1013.13 1012.93 1012.76 1012.60 1012.44 1012.29 1012.15 1012.02 1011.92
1020.90 1020.85 1020.81 1020.76 1020.69 1020.61 1020.52 1020.43 1020.36 1020.31 1020.28 1020.25 1020.20 1020.10 1019.91 1019.62 1019.20 1018.67 1018.06 1017.39 1016.72 1016.09 1015.52 1015.03 1014.64 1014.33 1014.08 1013.86 1013.67 1013.48 1013.29 1013.10 1012.91 1012.73 1012.56 1012.40 1012.24 1012.08 1011.90 1011.72 1011.52 1011.32 1011.14
1020.92 1020.83 1020.74 1020.64 1020.51 1020.36 1020.21 1020.06 1019.94 1019.85 1019.79 1019.76 1019.72 1019.64 1019.48 1019.22 1018.84 1018.33 1017.72 1017.04 1016.33 1015.64 1015.00 1014.44 1013.98 1013.60 1013.30 1013.06 1012.86 1012.69 1012.53 1012.38 1012.24 1012.11 1011.98 1011.85 1011.71 1011.55 1011.37 1011.15 1010.91 1010.65 1010.40
1020.91 1020.80 1020.67 1020.52 1020.34 1020.13 1019.92 1019.72 1019.54 1019.41 1019.33 1019.27 1019.22 1019.14 1019.00 1018.75 1018.38 1017.88 1017.27 1016.58 1015.85 1015.12 1014.44 1013.83 1013.32 1012.89 1012.56 1012.30 1012.10 1011.94 1011.80 1011.68 1011.57 1011.47 1011.36 1011.25 1011.11 1010.95 1010.76 1010.52 1010.25 1009.96 1009.66
1020.89 1020.75 1020.59 1020.39 1020.17 1019.92 1019.65 1019.40 1019.18 1019.01 1018.88 1018.80 1018.72 1018.62 1018.46 1018.21 1017.84 1017.35 1016.74 1016.04 1015.31 1014.56 1013.86 1013.23 1012.68 1012.24 1011.89 1011.61 1011.40 1011.24 1011.10 1010.99 1010.88 1010.77 1010.66 1010.54 1010.40 1010.23 1010.03 1009.78 1009.50 1009.19 1008.88
1020.83 1020.67 1020.47 1020.24 1019.97 1019.68 1019.38 1019.09 1018.83 1018.61 1018.45 1018.32 1018.21 1018.08 1017.89 1017.62 1017.24 1016.75 1016.14 1015.45 1014.72 1013.99 1013.28 1012.65 1012.10 1011.64 1011.28 1010.99 1010.77 1010.59 1010.43 1010.29 1010.15 1010.02 1009.88 1009.73 1009.56 1009.37 1009.16 1008.92 1008.65 1008.36 1008.05
1020.71 1020.52 1020.29 1020.03 1019.73 1019.41 1019.07 1018.75 1018.45 1018.20 1017.99 1017.82 1017.67 1017.50 1017.29 1017.00 1016.60 1016.10 1015.51 1014.83 1014.12 1013.40 1012.72 1012.10 1011.56 1011.11 1010.73 1010.43 1010.18 1009.96 1009.77 1009.58 1009.39 1009.20 1009.01 1008.81 1008.62 1008.41 1008.19 1007.97 1007.72 1007.46 1007.19
1020.51 1020.29 1020.04 1019.74 1019.41 1019.06 1018.70 1018.35 1018.02 1017.74 1017.50 1017.30 1017.11 1016.90 1016.66 1016.34 1015.94 1015.44 1014.85 1014.20 1013.51 1012.82 1012.17 1011.57 1011.04 1010.59 1010.21 1009.89 1009.61 1009.35 1009.11 1008.86 1008.61 1008.36 1008.10 1007.86 1007.62 1007.40 1007.19 1006.98 1006.77 1006.56 1006.34
1020.23 1019.98 1019.69 1019.37 1019.02 1018.64 1018.25 1017.88 1017.54 1017.23 1016.96 1016.73 1016.50 1016.27 1016.00 1015.66 1015.24 1014.74 1014.17 1013.54 1012.88 1012.22 1011.59 1011.01 1010.50 1010.05 1009.67 1009.33 1009.02 1008.72 1008.42 1008.12 1007.82 1007.51 1007.20 1006.92 1006.65 1006.41 1006.20 1006.01 1005.84 1005.68 1005.53
1019.86 1019.58 1019.27 1018.92 1018.54 1018.15 1017.74 1017.36 1016.99 1016.67 1016.37 1016.11 1015.86 1015.60 1015.30 1014.94 1014.51 1014.00 1013.44 1012.82 1012.18 1011.54 1010.93 1010.37 1009.87 1009.43 1009.04 1008.69 1008.36 1008.04 1007.71 1007.38 1007.03 1006.68 1006.35 1006.03 1005.75 1005.50 1005.29 1005.13 1004.99 1004.87 1004.76
1019.42 1019.12 1018.79 1018.42 1018.02 1017.60 1017.19 1016.78 1016.40 1016.05 1015.74 1015.45 1015.17 1014.87 1014.54 1014.16 1013.71 1013.19 1012.62 1012.00 1011.37 1010.75 1010.15 1009.60 1009.12 1008.68 1008.30 1007.95 1007.62 1007.30 1006.96 1006.62 1006.27 1005.91 1005.56 1005.24 1004.95 1004.70 1004.50 1004.34 1004.22 1004.13 1004.05
1018.94 1018.62 1018.27 1017.89 1017.47 1017.04 1016.61 1016.18 1015.78 1015.41 1015.07 1014.74 1014.42 1014.09 1013.72 1013.29 1012.81 1012.27 1011.68 1011.05 1010.42 1009.79 1009.20 1008.67 1008.20 1007.78 1007.41 1007.09 1006.78 1006.48 1006.17 1005.85 1005.52 1005.19 1004.85 1004.54 1004.25 1004.01 1003.81 1003.66 1003.54 1003.45 1003.39
1018.44 1018.12 1017.76 1017.36 1016.93 1016.48 1016.02 1015.57 1015.14 1014.74 1014.36 1013.99 1013.62 1013.23 1012.81 1012.34 1011.81 1011.23 1010.60 1009.95 1009.30 1008.68 1008.09 1007.57 1007.11 1006.72 1006.39 1006.11 1005.85 1005.60 1005.34 1005.08 1004.79 1004.50 1004.20 1003.92 1003.65 1003.42 1003.22 1003.06 1002.94 1002.84 1002.77
1017.94 1017.62 1017.25 1016.84 1016.40 1015.92 1015.44 1014.96 1014.50 1014.05 1013.62 1013.20 1012.77 1012.32 1011.83 1011.29 1010.71 1010.07 1009.40 1008.72 1008.05 1007.42 1006.84 1006.33 1005.90 1005.55 1005.27 1005.04 1004.84 1004.66 1004.48 1004.29 1004.07 1003.84 1003.59 1003.35 1003.11 1002.89 1002.69 1002.53 1002.40 1002.29 1002.21
1017.47 1017.14 1016.77 1016.34 1015.88 1015.38 1014.87 1014.36 1013.85 1013.36 1012.87 1012.38 1011.89 1011.36 1010.80 1010.19 1009.54 1008.85 1008.13 1007.42 1006.73 1006.09 1005.52 1005.03 1004.64 1004.33 1004.11 1003.94 1003.81 1003.71 1003.60 1003.48 1003.34 1003.18 1002.99 1002.79 1002.58 1002.39 1002.21 1002.05 1001.92 1001.81 1001.72
1017.00 1016.67 1016.28 1015.83 1015.35 1014.83 1014.29 1013.74 1013.19 1012.65 1012.11 1011.56 1010.99 1010.40 1009.76 1009.08 1008.37 1007.62 1006.87 1006.12 1005.42 1004.78 1004.22 1003.76 1003.40 1003.14 1002.97 1002.87 1002.80 1002.77 1002.73 1002.68 1002.60 1002.50 1002.37 1002.22 1002.05 1001.89 1001.74 1001.60 1001.49 1001.40 1001.33
Thickness
5645 5642 5641 5639 5638 5636 5635 5633 5632 5632 5632 5632 5632 5632 5632 5631 5631 5632 5632 5631 5630 5629 5629 5630 5630 5630 5630 5630 5630 5630 5630 5629 5628 5628 5627 5626 5625 5625 5624 5623 5622 5622 5621
5641 5638 5636 5634 5632 5631 5630 5628 5627 5626 5626 5626 5626 5626 5626 5626 5626 5626 5627 5627 5626 5625 5624 5624 5624 5625 5625 5625 5625 5625 5624 5624 5623 5622 5622 5621 5620 5619 5618 5617 5616 5615 5615
5636 5634 5631 5629 5627 5626 5624 5623 5621 5620 5620 5620 5620 5620 5620 5621 5621 5621 5621 5622 5622 5621 5619 5618 5618 5618 5618 5618 5618 5618 5618 5617 5617 5617 5616 5615 5614 5613 5612 5611 5610 5609 5608
5631 5629 5626 5623 5621 5620 5619 5617 5615 5613 5612 5612 5613 5614 5614 5615 5616 5616 5616 5616 5616 5616 5615 5613 5611 5610 5610 5610 5610 5611 5610 5610 5610 5609 5609 5609 5608 5607 5606 5605 5604 5602 5601
5626 5623 5620 5618 5616 5614 5612 5610 5608 5606 5605 5604 5605 5606 5607 5608 5609 5610 5611 5611 5610 5610 5609 5607 5605 5603 5602 5601 5600 5601 5602 5602 5602 5602 5602 5601 5601 5600 5599 5598 5597 5596 5595
5620 5617 5614 5611 5609 5607 5604 5602 5601 5599 5597 5596 5597 5599 5600 5601 5602 5604 5605 5606 5605 5603 5601 5600 5598 5596 5594 5592 5591 5590 5591 5592 5593 5594 5593 5593 5593 5592 5592 5591 5591 5590 5589
5613 5610 5607 5604 5601 5599 5597 5595 5593 5591 5589 5588 5586 5587 5592 5595 5598 5600 5601 5601 5599 5597 5595 5592 5590 5588 5586 5583 5581 5579 5579 5580 5581 5583 5584 5584 5584 5584 5583 5583 5583 5582 5582
5606 5604 5600 5597 5595 5592 5590 5588 5586 5583 5581 5579 5574 5571 5573 5583 5590 5595 5594 5592 5591 5589 5587 5584 5580 5578 5575 5573 5571 5568 5567 5566 5567 5568 5570 5572 5573 5574 5574 5574 5574 5574 5574
5600 5597 5594 5591 5588 5586 5583 5581 5578 5575 5572 5570 5566 5559 5554 5558 5568 5579 5580 5578 5577 5575 5574 5572 5570 5567 5564 5562 5559 5556 5553 5552 5551 5552 5554 5556 5558 5561 5562 5564 5565 5565 5565
5593 5590 5587 5584 5581 5579 5576 5574 5572 5568 5563 5559 5556 5553 5550 5546 5543 5551 5562 5564 5562 5559 5557 5556 5555 5554 5552 5549 5546 5543 5539 5537 5535 5535 5536 5538 5540 5543 5547 5550 5552 5554 5555
5586 5583 5580 5576 5573 5570 5568 5565 5562 5559 5554 5550 5546 5542 5539 5536 5532 5528 5538 5543 5545 5544 5542 5540 5538 5537 5535 5533 5531 5527 5523 5521 5519 5517 5517 5518 5520 5523 5527 5532 5536 5539 5542
5578 5575 5572 5568 5565 5562 5559 5556 5552 5548 5544 5540 5535 5531 5526 5521 5518 5514 5517 5522 5525 5527 5525 5523 5519 5516 5513 5511 5510 5508 5506 5504 5501 5499 5497 5497 5498 5500 5504 5509 5515 5520 5524
5567 5565 5562 5559 5556 5553 5550 5546 5542 5538 5534 5529 5524 5520 5515 5511 5506 5500 5498 5502 5504 5508 5505 5503 5498 5494 5490 5487 5485 5483 5483 5482 5480 5478 5476 5474 5474 5475 5479 5484 5490 5496 5502
5557 5555 5552 5549 5546 5543 5539 5536 5532 5527 5523 5518 5514 5508 5503 5499 5492 5485 5478 5475 5480 5488 5487 5484 5478 5471 5466 5461 5459 5456 5456 5455 5454 5453 5451 5450 5450 5451 5454 5458 5464 5470 5478
5549 5546 5542 5539 5536 5532 5528 5524 5520 5515 5510 5505 5500 5494 5489 5484 5477 5470 5462 5453 5446 5455 5470 5467 5455 5448 5439 5434 5431 5428 5427 5426 5427 5427 5426 5426 5426 5428 5431 5435 5440 5446 5453
5539 5536 5532 5529 5525 5521 5517 5512 5507 5502 5497 5492 5485 5479 5473 5467 5460 5452 5443 5436 5426 5420 5434 5447 5433 5423 5414 5410 5407 5404 5404 5402 5403 5404 5404 5405 5406 5408 5411 5415 5419 5424 5431
5529 5525 5521 5517 5513 5509 5504 5499 5494 5488 5481 5475 5468 5461 5454 5446 5438 5431 5423 5415 5407 5396 5398 5419 5412 5402 5393 5389 5387 5385 5385 5384 5385 5385 5386 5387 5389 5391 5394 5397 5401 5406 5412
5518 5514 5510 5505 5501 5496 5490 5484 5478 5472 5465 5458 5450 5440 5433 5424 5416 5408 5400 5394 5387 5379 5372 5383 5393 5383 5376 5372 5371 5370 5370 5371 5371 5371 5372 5374 5376 5378 5380 5383 5386 5390 5395
5506 5502 5497 5492 5487 5482 5476 5469 5462 5456 5448 5440 5431 5421 5412 5402 5395 5388 5380 5374 5369 5364 5358 5358 5370 5368 5364 5360 5359 5360 5359 5359 5360 5360 5362 5363 5365 5367 5369 5371 5374 5377 5381
5494 5489 5485 5479 5474 5468 5461 5454 5447 5440 5433 5424 5414 5404 5394 5384 5377 5371 5365 5361 5355 5351 5348 5347 5352 5355 5353 5351 5348 5349 5351 5350 5350 5351 5352 5354 5355 5357 5358 5360 5363 5365 5369
5482 5477 5473 5468 5462 5454 5447 5439 5432 5425 5417 5409 5400 5390 5380 5371 5364 5358 5354 5351 5346 5343 5341 5340 5342 5344 5345 5342 5340 5340 5341 5343 5344 5343 5343 5345 5345 5346 5347 5349 5351 5354 5357
5470 5466 5460 5455 5449 5442 5434 5427 5419 5411 5402 5393 5385 5376 5367 5359 5353 5349 5346 5343 5340 5336 5334 5333 5335 5335 5336 5334 5333 5332 5332 5334 5338 5338 5335 5338 5336 5338 5338 5339 5341 5343 5347
5459 5453 5447 5441 5435 5427 5419 5412 5403 5395 5387 5377 5368 5361 5355 5348 5342 5338 5336 5335 5333 5331 5329 5327 5328 5328 5328 5328 5325 5326 5326 5326 5329 5329 5326 5331 5329 5330 5331 5332 5334 5337 5339
5447 5441 5434 5427 5420 5413 5404 5396 5388 5380 5371 5362 5353 5346 5341 5338 5332 5330 5329 5329 5327 5326 5324 5322 5322 5323 5323 5323 5320 5320 5320 5321 5323 5323 5318 5322 5324 5323 5325 5326 5328 5330 5332
5434 5428 5421 5413 5405 5398 5388 5379 5371 5364 5356 5349 5342 5335 5330 5328 5326 5325 5325 5324 5324 5324 5323 5323 5324 5324 5324 5324 5322 5319 5318 5317 5320 5321 5316 5315 5317 5316 5318 5319 5321 5323 5326
5421 5415 5408 5399 5390 5382 5373 5363 5354 5346 5342 5337 5332 5327 5322 5321 5321 5321 5319 5318 5319 5321 5320 5321 5321 5321 5320 5319 5319 5315 5312 5311 5312 5314 5313 5310 5310 5307 5310 5314 5315 5316 5318